Weather in Nevelsk

Russia / Sakhalin District     46°39′10″N   141°51′47″E
temp.,
°C
wind,
m/s
gust,
m/s
humid.,
%
clouds,
%
prec.,
mm/h
press.,
hPa
HPBL,
m
29 september, wed
wed2923:00+17s7119099 0.1 1017223
02:00+16s61091100 0.0 1016191
05:00+17s610935 0.0 1016201
08:00+16sse710925 0.0 1016220
11:00+17s811905 0.1 1016251
14:00+16ssw7109071 0.0 1015217
17:00+16s6890100 0.0 1014160
20:00+16sse5785100 0.0 1014126
30 september, thu
thu3023:00+16se5683100 0.0 1012101
02:00+16se3479100 0.0 101075
05:00+15ese4577100 0.0 100883
08:00+14ese4587100 0.9 1007165
11:00+15ese71289100 3.1 1005680
14:00+15ese61186100 3.0 1003559
17:00+15ene3589100 6.4 1001369
20:00+15n458910 0.1 1003354
1 october, fri
fri123:00+15nnw578819 0.1 1004449
02:00+15wnw45822 0.0 1005430
05:00+15nw34756 0.0 1007320
08:00+14ne33705 0.0 1008255
11:00+14n44765 0.0 1010369
14:00+14nne546688 0.0 1009258
17:00+14nne4458100 0.0 1009162
20:00+15nne3361100 0.0 1010162
2 october, sat
sat223:00+14ne336497 0.0 1010206
02:00+14n2269100 0.0 1010191
05:00+14n4469100 0.0 1010353
08:00+14nne6666100 0.0 1010413
11:00+14n5662100 0.0 1010380
14:00+14n6663100 0.0 1010385
17:00+14n77651 0.0 1009483
20:00+14n77670 0.0 1011600
3 october, sun
sun323:00+14n78632 0.0 1011722
02:00+14nnw8960100 0.0 10121057
05:00+13nnw6661100 0.0 10121001
08:00+13nnw8861100 0.4 10141169
11:00+13nw67542 0.4 10161510
14:00+13wnw88551 0.0 10161247
17:00+13wnw89550 0.0 10181312
20:00+14w1012595 0.0 10202026